St. Joseph, KS

6:26 PM CST on November 22, 2019 (GMT -0600)
Rosecrans Memorial

Weather History for KSTJ - September, 2019

Change the Weather History Date:

Monday, September 9, 2019

  Actual Average Record
Temperature  
Mean Temperature 81 °F 69 °F  
Max Temperature 91 °F 82 °F 98 °F (1955)
Min Temperature 71 °F 57 °F 42 °F (2008)
Degree Days  
Heating Degree Days 0 1  
Month to date heating degree days 0 7  
Since 1 July heating degree days 0 12  
Cooling Degree Days 16 5  
Month to date cooling degree days 93 55  
Year to date cooling degree days 1237 1132  
Growing Degree Days 31 (Base 50)    
Moisture  
Dew Point 69 °F    
Average Humidity 70    
Maximum Humidity 93    
Minimum Humidity 47    
Precipitation  
Precipitation T in 0.12 in 1.60 in (1914)
Month to date precipitation 1.47 1.28  
Year to date precipitation 30.74 27.58  
Sea Level Pressure  
Sea Level Pressure 29.92 in    
Wind  
Wind Speed 10 mph (SSE)    
Max Wind Speed 23 mph    
Max Gust Speed 37 mph    
Visibility 9 miles    
Events Rain    
T = Trace of Precipitation, MM = Missing Value Source: NWS Daily Summary

Daily Weather History Graph

Daily Weather History Graph

Search for Another Location

Airport or City:

Astronomy

Sep. 09, 2019 Rise Set
Actual Time 6:54 AM CDT 7:38 PM CDT
Civil Twilight 6:27 AM CDT 8:05 PM CDT
Nautical Twilight 5:55 AM CDT 8:37 PM CDT
Astronomical Twilight 5:21 AM CDT 9:11 PM CDT
Moon 5:33 PM CDT (9/9) 2:27 AM CDT (9/9)
Length of Visible Light 13h 37m
Length of Day
12h 43m
Waxing Gibbous, 83% of the Moon is Illuminated
Sep 9
Waxing Gibbous
Sep 13
Full
Sep 21
Last Quarter
Sep 28
New
Oct 5
First Quarter

Hourly Weather History & Observations

Time (CDT) Temp. Heat Index Dew Point Humidity Pressure Visibility Wind Dir Wind Speed Gust Speed Precip Events Conditions
12:53 AM 73.0 °F - 70.0 °F 90% 29.94 in 10.0 mi SE 6.9 mph - N/A   Clear
1:14 AM 73.0 °F - 70.0 °F 90% 29.96 in 10.0 mi SE 9.2 mph - N/A   Partly Cloudy
1:53 AM 73.0 °F - 70.0 °F 90% 29.94 in 10.0 mi SE 8.1 mph - N/A   Partly Cloudy
2:53 AM 72.0 °F - 70.0 °F 93% 29.93 in 9.0 mi SE 9.2 mph - N/A   Mostly Cloudy
3:53 AM 72.0 °F - 70.0 °F 93% 29.93 in 8.0 mi SE 4.6 mph - N/A   Overcast
4:53 AM 71.1 °F - 69.1 °F 93% 29.94 in 8.0 mi ESE 6.9 mph - N/A   Clear
5:53 AM 71.1 °F - 69.1 °F 93% 29.94 in 6.0 mi SE 4.6 mph - N/A   Clear
6:53 AM 71.1 °F - 69.1 °F 93% 29.95 in 6.0 mi SE 4.6 mph - N/A   Clear
7:53 AM 72.0 °F - 69.1 °F 91% 29.96 in 5.0 mi SSE 3.5 mph - N/A   Mostly Cloudy
8:53 AM 75.9 °F - 70.0 °F 82% 29.95 in 10.0 mi South 9.2 mph - N/A   Clear
9:53 AM 79.0 °F - 69.1 °F 72% 29.94 in 10.0 mi South 11.5 mph - N/A   Clear
10:53 AM 84.0 °F 87.8 °F 69.1 °F 61% 29.92 in 10.0 mi South 12.7 mph - N/A   Clear
11:53 AM 86.0 °F 90.1 °F 69.1 °F 57% 29.91 in 10.0 mi South 12.7 mph 21.9 mph N/A   Clear
12:53 PM 89.1 °F 93.7 °F 69.1 °F 52% 29.91 in 10.0 mi SSW 18.4 mph 29.9 mph N/A   Clear
1:53 PM 91.0 °F 95.2 °F 68.0 °F 47% 29.91 in 10.0 mi SSW 17.3 mph 28.8 mph N/A   Clear
2:53 PM 89.1 °F 92.9 °F 68.0 °F 50% 29.89 in 10.0 mi South 17.3 mph 24.2 mph N/A   Clear
3:53 PM 90.0 °F 93.6 °F 68.0 °F 48% 29.87 in 10.0 mi South 16.1 mph 28.8 mph N/A   Unknown
4:53 PM 86.0 °F 90.1 °F 69.1 °F 57% 29.87 in 10.0 mi South 9.2 mph - N/A   Clear
5:53 PM 84.9 °F 88.8 °F 69.1 °F 59% 29.87 in 10.0 mi South 8.1 mph - N/A   Clear
6:53 PM 82.9 °F 86.5 °F 69.1 °F 63% 29.87 in 10.0 mi South 8.1 mph - 0.00 in Rain Light Rain
7:53 PM 80.1 °F 82.9 °F 69.1 °F 69% 29.88 in 10.0 mi SSE 5.8 mph - 0.00 in   Clear
8:53 PM 81.0 °F 84.1 °F 69.1 °F 67% 29.89 in 10.0 mi SSE 8.1 mph - N/A   Clear
9:53 PM 81.0 °F 84.1 °F 69.1 °F 67% 29.90 in 10.0 mi South 9.2 mph - N/A   Mostly Cloudy
10:53 PM 79.0 °F - 69.1 °F 72% 29.91 in 10.0 mi South 8.1 mph - N/A   Partly Cloudy
11:53 PM 79.0 °F - 68.0 °F 69% 29.91 in 10.0 mi South 11.5 mph - N/A   Clear